,,Stat6,,Stat2,,Stat8,,Stat9,,Stat10,,Wind1,,Wind1,
time,status,PA1M_AVG,status,PR1M_SUM,status,RH1M_AVG,status,SR1M_AVG,status,TA1M_AVG,status,W1dAve1m,status,W1sAve1m,
2005-09-09, 00:00:00,VALID,919.798,VALID,0,VALID,100,VALID,0,VALID,19.9241,VALID,5,VALID,0.776101,
2005-09-09, 00:01:00,VALID,919.797,VALID,0,VALID,100,VALID,0.0679233,VALID,19.936,VALID,2,VALID,0.613715,
2005-09-09, 00:02:00,VALID,919.795,VALID,0,VALID,100,VALID,0.0169808,VALID,19.9419,VALID,352,VALID,0.680414,
2005-09-09, 00:03:00,VALID,919.799,VALID,0,VALID,100,VALID,0.0509425,VALID,19.9551,VALID,6,VALID,0.576823,
2005-09-09, 00:04:00,VALID,919.802,VALID,0,VALID,100,VALID,0.0849042,VALID,19.9752,VALID,3,VALID,0.698038,
2005-09-09, 00:05:00,VALID,919.811,VALID,0,VALID,100,VALID,0.0679233,VALID,19.9715,VALID,353,VALID,0.576563,
2005-09-09, 00:06:00,VALID,919.817,VALID,0,VALID,100,VALID,0.0509425,VALID,19.9611,VALID,353,VALID,0.494186,
2005-09-09, 00:07:00,VALID,919.812,VALID,0,VALID,100,VALID,0.0849042,VALID,19.9551,VALID,4,VALID,0.517485,
2005-09-09, 00:08:00,VALID,919.809,VALID,0,VALID,100,VALID,0.0679233,VALID,19.9648,VALID,16,VALID,0.613715,
2005-09-09, 00:09:00,VALID,919.802,VALID,0,VALID,100,VALID,0.0849042,VALID,19.9487,VALID,16,VALID,0.421689,
2005-09-09, 00:10:00,VALID,919.812,VALID,0,VALID,100,VALID,0.0849042,VALID,19.9295,VALID,16,VALID,0.416969,
2005-09-09, 00:11:00,VALID,919.81,VALID,0,VALID,100,VALID,0.0509425,VALID,19.9231,VALID,4,VALID,0.535528,
2005-09-09, 00:12:00,VALID,919.824,VALID,0,VALID,100,VALID,0.0509425,VALID,19.9164,VALID,358,VALID,0.761541,
2005-09-09, 00:13:00,VALID,919.814,VALID,0,VALID,100,VALID,0.0339617,VALID,19.9323,VALID,350,VALID,0.510099,
2005-09-09, 00:14:00,VALID,919.826,VALID,0,VALID,100,VALID,0.0849042,VALID,19.9414,VALID,350,VALID,0.459484,
2005-09-09, 00:15:00,VALID,919.811,VALID,0,VALID,100,VALID,-0.0169808,VALID,19.9424,VALID,350,VALID,0.631882,
2005-09-09, 00:16:00,VALID,919.803,VALID,0,VALID,100,VALID,-0.0339617,VALID,19.9504,VALID,353,VALID,0.670785,
2005-09-09, 00:17:00,VALID,919.785,VALID,0,VALID,100,VALID,-0.0169808,VALID,19.9375,VALID,357,VALID,0.630766,
2005-09-09, 00:18:00,VALID,919.77,VALID,0,VALID,100,VALID,-0.0339617,VALID,19.9238,VALID,357,VALID,0.510742,
2005-09-09, 00:19:00,VALID,919.754,VALID,0,VALID,100,VALID,-0.0169808,VALID,19.9275,VALID,357,VALID,0.326527,
2005-09-09, 00:20:00,VALID,919.736,VALID,0,VALID,100,VALID,0,VALID,19.9308,VALID,357,VALID,0.162997,
2005-09-09, 00:21:00,VALID,919.725,VALID,0,VALID,100,VALID,-0.0169808,VALID,19.901,VALID,357,VALID,0.281436,
2005-09-09, 00:22:00,VALID,919.72,VALID,0,VALID,100,VALID,-0.0339617,VALID,19.898,VALID,357,VALID,0.133523,
2005-09-09, 00:23:00,VALID,919.726,VALID,0,VALID,100,VALID,-0.0169808,VALID,19.8726,VALID,357,VALID,0.0548828,
2005-09-09, 00:24:00,VALID,919.718,VALID,0,VALID,100,VALID,0,VALID,19.8398,VALID,357,VALID,0.420732,
2005-09-09, 00:25:00,VALID,919.71,VALID,0,VALID,100,VALID,-0.0339617,VALID,19.8471,VALID,357,VALID,0.548692,
2005-09-09, 00:26:00,VALID,919.697,VALID,0,VALID,100,VALID,-0.0339617,VALID,19.8503,VALID,357,VALID,0.579033,
2005-09-09, 00:27:00,VALID,919.688,VALID,0,VALID,100,VALID,-0.0339617,VALID,19.8471,VALID,357,VALID,0.158923,
2005-09-09, 00:28:00,VALID,919.667,VALID,0,VALID,100,VALID,-0.0339617,VALID,19.8304,VALID,357,VALID,0,
2005-09-09, 00:29:00,VALID,919.668,VALID,0,VALID,100,VALID,-0.0509425,VALID,19.8403,VALID,357,VALID,0.209635,
2005-09-09, 00:30:00,VALID,919.669,VALID,0,VALID,100,VALID,0.0339617,VALID,19.8361,VALID,357,VALID,0.373884,
2005-09-09, 00:31:00,VALID,919.653,VALID,0,VALID,100,VALID,0.0849042,VALID,19.8451,VALID,357,VALID,0.435897,
2005-09-09, 00:32:00,VALID,919.651,VALID,0,VALID,100,VALID,0.0679233,VALID,19.8652,VALID,360,VALID,0.693452,
2005-09-09, 00:33:00,VALID,919.662,VALID,0,VALID,100,VALID,0.0849042,VALID,19.8577,VALID,1,VALID,0.366655,
2005-09-09, 00:34:00,VALID,919.659,VALID,0,VALID,100,VALID,0.0849042,VALID,19.8709,VALID,360,VALID,0.436384,
2005-09-09, 00:35:00,VALID,919.666,VALID,0,VALID,100,VALID,0.0849042,VALID,19.8644,VALID,360,VALID,0.445503,
2005-09-09, 00:36:00,VALID,919.669,VALID,0,VALID,100,VALID,0.101885,VALID,19.8547,VALID,353,VALID,0.311166,
2005-09-09, 00:37:00,VALID,919.655,VALID,0,VALID,100,VALID,0.101885,VALID,19.8803,VALID,334,VALID,0.317935,
2005-09-09, 00:38:00,VALID,919.647,VALID,0,VALID,100,VALID,0.101885,VALID,19.858,VALID,330,VALID,0.42242,
2005-09-09, 00:39:00,VALID,919.628,VALID,0,VALID,100,VALID,0.0849042,VALID,19.8418,VALID,314,VALID,0.521151,
2005-09-09, 00:40:00,VALID,919.588,VALID,0,VALID,100,VALID,0.0679233,VALID,19.8547,VALID,320,VALID,0.486793,
2005-09-09, 00:41:00,VALID,919.573,VALID,0,VALID,100,VALID,0.0339617,VALID,19.8421,VALID,351,VALID,0.816964,
2005-09-09, 00:42:00,VALID,919.547,VALID,0,VALID,100,VALID,0.0679233,VALID,19.8197,VALID,338,VALID,0.167878,
2005-09-09, 00:43:00,VALID,919.528,VALID,0,VALID,100,VALID,0.101885,VALID,19.8227,VALID,337,VALID,0.0326389,
2005-09-09, 00:44:00,VALID,919.491,VALID,0,VALID,100,VALID,0.0679233,VALID,19.8359,VALID,282,VALID,0.546317,
2005-09-09, 00:45:00,VALID,919.471,VALID,0,VALID,100,VALID,0.0339617,VALID,19.8036,VALID,245,VALID,0.726563,
2005-09-09, 00:46:00,VALID,919.452,VALID,0,VALID,100,VALID,-0.0339617,VALID,19.7951,VALID,243,VALID,0.602679,
2005-09-09, 00:47:00,VALID,919.435,VALID,0,VALID,100,VALID,-0.0169808,VALID,19.8043,VALID,243,VALID,0.385417,
2005-09-09, 00:48:00,VALID,919.419,VALID,0,VALID,100,VALID,-0.0339617,VALID,19.8013,VALID,243,VALID,0.411882,
2005-09-09, 00:49:00,VALID,919.395,VALID,0,VALID,100,VALID,0,VALID,19.8153,VALID,243,VALID,0.159157,
2005-09-09, 00:50:00,VALID,919.38,VALID,0,VALID,100,VALID,0,VALID,19.8182,VALID,243,VALID,0,
2005-09-09, 00:51:00,VALID,919.379,VALID,0,VALID,100,VALID,-0.0509425,VALID,19.8048,VALID,243,VALID,0.0658482,
2005-09-09, 00:52:00,VALID,919.37,VALID,0,VALID,100,VALID,-0.0339617,VALID,19.7825,VALID,243,VALID,0.00053267,
2005-09-09, 00:53:00,VALID,919.357,VALID,0,VALID,100,VALID,0,VALID,19.7564,VALID,243,VALID,0.0788517,
2005-09-09, 00:54:00,VALID,919.363,VALID,0,VALID,100,VALID,0,VALID,19.7879,VALID,243,VALID,0.00111607,
2005-09-09, 00:55:00,VALID,919.342,VALID,0,VALID,100,VALID,-0.0169808,VALID,19.8016,VALID,272,VALID,0.196875,
2005-09-09, 00:56:00,VALID,919.332,VALID,0,VALID,100,VALID,-0.0169808,VALID,19.7204,VALID,305,VALID,0.339666,
2005-09-09, 00:57:00,VALID,919.307,VALID,0,VALID,100,VALID,-0.0169808,VALID,19.7531,VALID,342,VALID,0.731771,
2005-09-09, 00:58:00,VALID,919.302,VALID,0,VALID,100,VALID,-0.0169808,VALID,19.8053,VALID,346,VALID,0.555959,
2005-09-09, 00:59:00,VALID,919.3,VALID,0,VALID,100,VALID,-0.0679233,VALID,19.8013,VALID,333,VALID,0.24564,
2005-09-09, 01:00:00,VALID,919.283,VALID,0,VALID,100,VALID,-0.0339617,VALID,19.8341,VALID,303,VALID,0.328125,
2005-09-09, 01:01:00,VALID,919.275,VALID,0,VALID,100,VALID,-0.0509425,VALID,19.8726,VALID,303,VALID,0.27763,
2005-09-09, 01:02:00,VALID,919.255,VALID,0,VALID,100,VALID,-0.0509425,VALID,19.8826,VALID,303,VALID,0.153587,
2005-09-09, 01:03:00,VALID,919.248,VALID,0,VALID,100,VALID,-0.0509425,VALID,19.8761,VALID,303,VALID,0.0729802,
2005-09-09, 01:04:00,VALID,919.233,VALID,0,VALID,100,VALID,-0.0339617,VALID,19.8731,VALID,303,VALID,0,
2005-09-09, 01:05:00,VALID,919.223,VALID,0,VALID,100,VALID,-0.0169808,VALID,19.8498,VALID,303,VALID,0,
2005-09-09, 01:06:00,VALID,919.215,VALID,0,VALID,100,VALID,-0.0339617,VALID,19.8398,VALID,303,VALID,0.00635901,
2005-09-09, 01:07:00,VALID,919.217,VALID,0,VALID,100,VALID,0,VALID,19.8466,VALID,303,VALID,0,
2005-09-09, 01:08:00,VALID,919.22,VALID,0,VALID,100,VALID,0,VALID,19.8175,VALID,303,VALID,0.0464939,
2005-09-09, 01:09:00,VALID,919.217,VALID,0,VALID,100,VALID,0,VALID,19.7892,VALID,303,VALID,0.0112645,
2005-09-09, 01:10:00,VALID,919.21,VALID,0,VALID,100,VALID,-0.0679233,VALID,19.7211,VALID,303,VALID,0.0772372,
2005-09-09, 01:11:00,VALID,919.177,VALID,0,VALID,100,VALID,-0.0169808,VALID,19.6883,VALID,303,VALID,0,
2005-09-09, 01:12:00,VALID,919.156,VALID,0,VALID,100,VALID,-0.0169808,VALID,19.6918,VALID,303,VALID,0,
2005-09-09, 01:13:00,VALID,919.134,VALID,0,VALID,100,VALID,-0.0169808,VALID,19.7139,VALID,303,VALID,0.074673,
2005-09-09, 01:14:00,VALID,919.119,VALID,0,VALID,100,VALID,-0.0169808,VALID,19.7136,VALID,303,VALID,0.0326522,
2005-09-09, 01:15:00,VALID,919.096,VALID,0,VALID,100,VALID,-0.0339617,VALID,19.7208,VALID,303,VALID,0,
2005-09-09, 01:16:00,VALID,919.081,VALID,0,VALID,100,VALID,-0.0509425,VALID,19.6893,VALID,303,VALID,0,
2005-09-09, 01:17:00,VALID,919.076,VALID,0,VALID,100,VALID,-0.0339617,VALID,19.6731,VALID,303,VALID,0.0708841,
2005-09-09, 01:18:00,VALID,919.076,VALID,0,VALID,100,VALID,-0.0169808,VALID,19.6694,VALID,303,VALID,0.193496,
2005-09-09, 01:19:00,VALID,919.066,VALID,0,VALID,100,VALID,-0.0679233,VALID,19.7213,VALID,303,VALID,0.262074,
2005-09-09, 01:20:00,VALID,919.071,VALID,0,VALID,100,VALID,-0.0339617,VALID,19.6888,VALID,303,VALID,0.257241,
2005-09-09, 01:21:00,VALID,919.05,VALID,0,VALID,100,VALID,-0.0849042,VALID,19.5599,VALID,303,VALID,0.209635,
2005-09-09, 01:22:00,VALID,919.03,VALID,0,VALID,100,VALID,0,VALID,19.4918,VALID,303,VALID,0.0596418,
2005-09-09, 01:23:00,VALID,919.015,VALID,0,VALID,100,VALID,-0.0169808,VALID,19.3827,VALID,303,VALID,0.0904796,
2005-09-09, 01:24:00,VALID,919.02,VALID,0,VALID,100,VALID,-0.0509425,VALID,19.4046,VALID,303,VALID,0.0892857,
2005-09-09, 01:25:00,VALID,919.014,VALID,0,VALID,100,VALID,-0.0509425,VALID,19.4046,VALID,303,VALID,0.0887957,
2005-09-09, 01:26:00,VALID,919.015,VALID,0,VALID,100,VALID,0,VALID,19.4081,VALID,303,VALID,0.00852273,
2005-09-09, 01:27:00,VALID,919.026,VALID,0,VALID,100,VALID,-0.0509425,VALID,19.4178,VALID,303,VALID,0,
2005-09-09, 01:28:00,VALID,919.005,VALID,0,VALID,100,VALID,-0.0509425,VALID,19.4178,VALID,303,VALID,0,
2005-09-09, 01:29:00,VALID,918.988,VALID,0,VALID,100,VALID,-0.0509425,VALID,19.4533,VALID,321,VALID,0.366257,
2005-09-09, 01:30:00,VALID,918.987,VALID,0,VALID,100,VALID,0,VALID,19.4821,VALID,339,VALID,0.238372,
2005-09-09, 01:31:00,VALID,918.98,VALID,0,VALID,100,VALID,-0.0339617,VALID,19.5082,VALID,357,VALID,0.282465,
2005-09-09, 01:32:00,VALID,918.98,VALID,0,VALID,100,VALID,-0.0339617,VALID,19.4985,VALID,9,VALID,0.442951,
2005-09-09, 01:33:00,VALID,918.974,VALID,0,VALID,100,VALID,-0.0169808,VALID,19.4923,VALID,13,VALID,0.510099,
2005-09-09, 01:34:00,VALID,918.971,VALID,0,VALID,100,VALID,-0.0509425,VALID,19.4665,VALID,13,VALID,0.349746,
2005-09-09, 01:35:00,VALID,918.962,VALID,0,VALID,100,VALID,-0.0169808,VALID,19.4498,VALID,13,VALID,0.16695,
2005-09-09, 01:36:00,VALID,918.954,VALID,0,VALID,100,VALID,-0.0339617,VALID,19.4401,VALID,13,VALID,0.221912,
2005-09-09, 01:37:00,VALID,918.955,VALID,0,VALID,100,VALID,-0.0339617,VALID,19.4279,VALID,13,VALID,0.536632,
2005-09-09, 01:38:00,VALID,918.96,VALID,0,VALID,100,VALID,-0.0509425,VALID,19.3954,VALID,13,VALID,0.655692,
2005-09-09, 01:39:00,VALID,918.956,VALID,0,VALID,100,VALID,-0.0679233,VALID,19.3822,VALID,13,VALID,0.777699,
2005-09-09, 01:40:00,VALID,918.968,VALID,0,VALID,100,VALID,-0.0169808,VALID,19.376,VALID,13,VALID,0.871466,
2005-09-09, 01:41:00,VALID,918.965,VALID,0,VALID,100,VALID,-0.0849042,VALID,19.3825,VALID,11,VALID,0.886083,
2005-09-09, 01:42:00,VALID,918.974,VALID,0,VALID,100,VALID,-0.0679233,VALID,19.389,VALID,9,VALID,0.824132,
2005-09-09, 01:43:00,VALID,918.975,VALID,0,VALID,100,VALID,-0.0509425,VALID,19.4185,VALID,9,VALID,0.631722,
2005-09-09, 01:44:00,VALID,918.976,VALID,0,VALID,100,VALID,-0.0339617,VALID,19.4312,VALID,9,VALID,0.467731,
2005-09-09, 01:45:00,VALID,918.97,VALID,0,VALID,100,VALID,-0.0339617,VALID,19.4309,VALID,9,VALID,0.261052,
2005-09-09, 01:46:00,VALID,918.956,VALID,0,VALID,100,VALID,-0.0679233,VALID,19.3758,VALID,9,VALID,0.41183,
2005-09-09, 01:47:00,VALID,918.948,VALID,0,VALID,100,VALID,-0.0339617,VALID,19.3862,VALID,9,VALID,0.330256,
2005-09-09, 01:48:00,VALID,918.937,VALID,0,VALID,100,VALID,-0.0509425,VALID,19.3922,VALID,9,VALID,0.327195,
2005-09-09, 01:49:00,VALID,918.929,VALID,0,VALID,100,VALID,-0.0169808,VALID,19.379,VALID,9,VALID,0.617733,
2005-09-09, 01:50:00,VALID,918.919,VALID,0,VALID,100,VALID,-0.0169808,VALID,19.386,VALID,9,VALID,0.579942,
2005-09-09, 01:51:00,VALID,918.905,VALID,0,VALID,100,VALID,-0.0169808,VALID,19.3698,VALID,9,VALID,0.586979,
2005-09-09, 01:52:00,VALID,918.896,VALID,0,VALID,100,VALID,-0.0169808,VALID,19.3827,VALID,9,VALID,0.50142,
2005-09-09, 01:53:00,VALID,918.877,VALID,0,VALID,100,VALID,-0.0339617,VALID,19.3924,VALID,9,VALID,0.4377,
2005-09-09, 01:54:00,VALID,918.858,VALID,0,VALID,100,VALID,0,VALID,19.3949,VALID,9,VALID,0.247332,
2005-09-09, 01:55:00,VALID,918.838,VALID,0,VALID,100,VALID,-0.0339617,VALID,19.3922,VALID,9,VALID,0.262247,
2005-09-09, 01:56:00,VALID,918.816,VALID,0,VALID,100,VALID,-0.0679233,VALID,19.3822,VALID,9,VALID,0.332849,
2005-09-09, 01:57:00,VALID,918.804,VALID,0,VALID,100,VALID,-0.0169808,VALID,19.3631,VALID,9,VALID,0.161585,
2005-09-09, 01:58:00,VALID,918.785,VALID,0,VALID,100,VALID,-0.0509425,VALID,19.3567,VALID,9,VALID,0.119368,
2005-09-09, 01:59:00,VALID,918.79,VALID,0,VALID,100,VALID,-0.0339617,VALID,19.347,VALID,9,VALID,0.264863,
2005-09-09, 02:00:00,VALID,918.793,VALID,0,VALID,100,VALID,-0.0169808,VALID,19.344,VALID,9,VALID,0.0926067,
2005-09-09, 02:01:00,VALID,918.791,VALID,0,VALID,100,VALID,-0.0169808,VALID,19.3475,VALID,9,VALID,0.412946,
2005-09-09, 02:02:00,VALID,918.797,VALID,0,VALID,100,VALID,-0.0509425,VALID,19.3504,VALID,9,VALID,0.443452,
2005-09-09, 02:03:00,VALID,918.794,VALID,0,VALID,100,VALID,-0.0169808,VALID,19.3629,VALID,9,VALID,0.159375,
2005-09-09, 02:04:00,VALID,918.8,VALID,0,VALID,100,VALID,-0.0509425,VALID,19.3497,VALID,9,VALID,0.0735518,
2005-09-09, 02:05:00,VALID,918.799,VALID,0,VALID,99.9906,VALID,-0.0339617,VALID,19.347,VALID,9,VALID,0.0473737,
2005-09-09, 02:06:00,VALID,918.795,VALID,0,VALID,99.9456,VALID,-0.0339617,VALID,19.3341,VALID,9,VALID,0.0228795,
2005-09-09, 02:07:00,VALID,918.775,VALID,0,VALID,99.8629,VALID,-0.0339617,VALID,19.3281,VALID,9,VALID,0,
2005-09-09, 02:08:00,VALID,918.765,VALID,0,VALID,99.8057,VALID,0,VALID,19.3082,VALID,9,VALID,0,
2005-09-09, 02:09:00,VALID,918.763,VALID,0,VALID,99.7561,VALID,-0.0169808,VALID,19.3055,VALID,9,VALID,0,
2005-09-09, 02:10:00,VALID,918.754,VALID,0,VALID,99.6735,VALID,-0.0509425,VALID,19.2921,VALID,9,VALID,0,
2005-09-09, 02:11:00,VALID,918.74,VALID,0,VALID,99.6429,VALID,-0.0339617,VALID,19.2762,VALID,9,VALID,0.149325,
2005-09-09, 02:12:00,VALID,918.752,VALID,0,VALID,99.7803,VALID,0,VALID,19.2955,VALID,9,VALID,0.456174,
2005-09-09, 02:13:00,VALID,918.764,VALID,0,VALID,99.6378,VALID,-0.0339617,VALID,19.3052,VALID,9,VALID,0.207209,
2005-09-09, 02:14:00,VALID,918.756,VALID,0,VALID,99.5298,VALID,-0.0169808,VALID,19.3122,VALID,9,VALID,0.184482,
2005-09-09, 02:15:00,VALID,918.757,VALID,0,VALID,99.4713,VALID,-0.0679233,VALID,19.2888,VALID,9,VALID,0.158854,
2005-09-09, 02:16:00,VALID,918.745,VALID,0,VALID,99.3288,VALID,-0.0509425,VALID,19.2799,VALID,9,VALID,0.0141369,
2005-09-09, 02:17:00,VALID,918.742,VALID,0,VALID,99.2907,VALID,-0.0509425,VALID,19.2538,VALID,9,VALID,0,
2005-09-09, 02:18:00,VALID,918.743,VALID,0,VALID,99.2309,VALID,-0.0849042,VALID,19.228,VALID,9,VALID,0.16369,
2005-09-09, 02:19:00,VALID,918.743,VALID,0,VALID,99.3594,VALID,-0.0679233,VALID,19.2317,VALID,9,VALID,0.0575945,
2005-09-09, 02:20:00,VALID,918.732,VALID,0,VALID,99.5997,VALID,-0.0339617,VALID,19.2473,VALID,9,VALID,0,
2005-09-09, 02:21:00,VALID,918.726,VALID,0,VALID,99.8349,VALID,-0.0169808,VALID,19.293,VALID,9,VALID,0,
2005-09-09, 02:22:00,VALID,918.719,VALID,0,VALID,99.7917,VALID,-0.0509425,VALID,19.2893,VALID,9,VALID,0,
2005-09-09, 02:23:00,VALID,918.734,VALID,0,VALID,99.8502,VALID,-0.0509425,VALID,19.2863,VALID,9,VALID,0,
2005-09-09, 02:24:00,VALID,918.753,VALID,0,VALID,99.8527,VALID,-0.0339617,VALID,19.3157,VALID,9,VALID,0.209847,
2005-09-09, 02:25:00,VALID,918.752,VALID,0,VALID,99.6493,VALID,-0.0849042,VALID,19.3124,VALID,9,VALID,0.410974,
2005-09-09, 02:26:00,VALID,918.761,VALID,0,VALID,99.4331,VALID,-0.0679233,VALID,19.338,VALID,9,VALID,0.304688,
2005-09-09, 02:27:00,VALID,918.746,VALID,0,VALID,99.25,VALID,-0.0169808,VALID,19.3445,VALID,9,VALID,0.25218,
2005-09-09, 02:28:01,VALID,918.745,VALID,0,VALID,99.0542,VALID,-0.0339617,VALID,19.3345,VALID,9,VALID,0.00639205,
2005-09-09, 02:29:00,VALID,918.741,VALID,0,VALID,98.8914,VALID,-0.0339617,VALID,19.3251,VALID,9,VALID,0,
2005-09-09, 02:30:00,VALID,918.734,VALID,0,VALID,98.8139,VALID,0,VALID,19.2921,VALID,9,VALID,0.0580611,
2005-09-09, 02:31:00,VALID,918.731,VALID,0,VALID,98.7948,VALID,-0.0169808,VALID,19.2856,VALID,9,VALID,0.0148628,
2005-09-09, 02:32:00,VALID,918.728,VALID,0,VALID,98.8088,VALID,0,VALID,19.299,VALID,9,VALID,0.0297256,
2005-09-09, 02:33:01,VALID,918.73,VALID,0,VALID,98.9741,VALID,-0.0509425,VALID,19.2921,VALID,9,VALID,0.103468,
2005-09-09, 02:34:01,VALID,918.738,VALID,0,VALID,99.0834,VALID,0.0169808,VALID,19.3343,VALID,9,VALID,0.115189,
2005-09-09, 02:35:00,VALID,918.734,VALID,0,VALID,98.997,VALID,-0.0169808,VALID,19.3373,VALID,9,VALID,0.187326,
2005-09-09, 02:36:00,VALID,918.727,VALID,0,VALID,98.8596,VALID,0,VALID,19.3375,VALID,9,VALID,0.0202415,
2005-09-09, 02:37:00,VALID,918.746,VALID,0,VALID,98.7693,VALID,-0.0169808,VALID,19.3244,VALID,9,VALID,0,
2005-09-09, 02:38:00,VALID,918.754,VALID,0,VALID,98.8189,VALID,-0.0169808,VALID,19.3251,VALID,9,VALID,0,
2005-09-09, 02:39:00,VALID,918.754,VALID,0,VALID,98.6574,VALID,0,VALID,19.3087,VALID,9,VALID,0,
2005-09-09, 02:40:00,VALID,918.763,VALID,0,VALID,98.8634,VALID,-0.0169808,VALID,19.2985,VALID,9,VALID,0,
2005-09-09, 02:41:00,VALID,918.766,VALID,0,VALID,98.9461,VALID,-0.0169808,VALID,19.3119,VALID,9,VALID,0,
2005-09-09, 02:42:00,VALID,918.783,VALID,0,VALID,98.8545,VALID,0,VALID,19.2796,VALID,9,VALID,0,
2005-09-09, 02:43:01,VALID,918.775,VALID,0,VALID,98.7973,VALID,-0.0169808,VALID,19.2702,VALID,9,VALID,0,
2005-09-09, 02:44:00,VALID,918.789,VALID,0,VALID,98.7236,VALID,-0.0339617,VALID,19.2508,VALID,9,VALID,0,
2005-09-09, 02:45:00,VALID,918.792,VALID,0,VALID,98.8189,VALID,-0.0339617,VALID,19.254,VALID,9,VALID,0,
2005-09-09, 02:46:00,VALID,918.793,VALID,0,VALID,99.0682,VALID,-0.0169808,VALID,19.2794,VALID,9,VALID,0,
2005-09-09, 02:47:00,VALID,918.805,VALID,0,VALID,98.7414,VALID,-0.0169808,VALID,19.27,VALID,9,VALID,0,
2005-09-09, 02:48:00,VALID,918.818,VALID,0,VALID,98.557,VALID,0,VALID,19.231,VALID,9,VALID,0,
2005-09-09, 02:49:00,VALID,918.816,VALID,0,VALID,98.7782,VALID,0,VALID,19.2021,VALID,9,VALID,0,
2005-09-09, 02:50:00,VALID,918.802,VALID,0,VALID,99.1076,VALID,0,VALID,19.2059,VALID,9,VALID,0,
2005-09-09, 02:51:01,VALID,918.788,VALID,0,VALID,99.325,VALID,0,VALID,19.2118,VALID,9,VALID,0,
2005-09-09, 02:52:00,VALID,918.762,VALID,0,VALID,99.3339,VALID,-0.0169808,VALID,19.2091,VALID,9,VALID,0,
2005-09-09, 02:53:00,VALID,918.758,VALID,0,VALID,99.4598,VALID,-0.0169808,VALID,19.2153,VALID,9,VALID,0.00181686,
2005-09-09, 02:54:00,VALID,918.754,VALID,0,VALID,99.3365,VALID,-0.0169808,VALID,19.1726,VALID,9,VALID,0,
2005-09-09, 02:55:01,VALID,918.742,VALID,0,VALID,99.6429,VALID,-0.0339617,VALID,19.1828,VALID,9,VALID,0,
2005-09-09, 02:56:01,VALID,918.738,VALID,0,VALID,99.8515,VALID,-0.0679233,VALID,19.1959,VALID,9,VALID,0,
2005-09-09, 02:57:00,VALID,918.738,VALID,0,VALID,99.9392,VALID,-0.0339617,VALID,19.1927,VALID,9,VALID,0,
2005-09-09, 02:58:00,VALID,918.743,VALID,0,VALID,99.9964,VALID,-0.0509425,VALID,19.2086,VALID,9,VALID,0,
2005-09-09, 02:59:01,VALID,918.755,VALID,0,VALID,100,VALID,-0.0509425,VALID,19.2379,VALID,9,VALID,0,
2005-09-09, 03:00:00,VALID,918.751,VALID,0,VALID,99.9669,VALID,-0.0169808,VALID,19.231,VALID,9,VALID,0,
2005-09-09, 03:01:01,VALID,918.749,VALID,0,VALID,100,VALID,0.0339617,VALID,19.2238,VALID,9,VALID,0,
2005-09-09, 03:02:01,VALID,918.745,VALID,0,VALID,100,VALID,0.0679233,VALID,19.2272,VALID,9,VALID,0,
2005-09-09, 03:03:00,VALID,918.75,VALID,0,VALID,100,VALID,0.0679233,VALID,19.227,VALID,9,VALID,0,
2005-09-09, 03:04:00,VALID,918.746,VALID,0,VALID,100,VALID,0.0679233,VALID,19.227,VALID,9,VALID,0,
2005-09-09, 03:05:00,VALID,918.749,VALID,0,VALID,100,VALID,0.0849042,VALID,19.2173,VALID,9,VALID,0,
2005-09-09, 03:06:01,VALID,918.73,VALID,0,VALID,100,VALID,0.0509425,VALID,19.2138,VALID,9,VALID,0,
2005-09-09, 03:07:00,VALID,918.716,VALID,0,VALID,99.9303,VALID,0.101885,VALID,19.2106,VALID,9,VALID,0,
2005-09-09, 03:08:00,VALID,918.68,VALID,0,VALID,99.8349,VALID,0.101885,VALID,19.2111,VALID,9,VALID,0,
2005-09-09, 03:09:00,VALID,918.668,VALID,0,VALID,99.6925,VALID,0.0679233,VALID,19.2106,VALID,9,VALID,0,
2005-09-09, 03:10:00,VALID,918.639,VALID,0,VALID,99.6607,VALID,0.0849042,VALID,19.2136,VALID,9,VALID,0.106055,
2005-09-09, 03:11:00,VALID,918.633,VALID,0,VALID,99.5183,VALID,0.0679233,VALID,19.2339,VALID,9,VALID,0.315163,
2005-09-09, 03:12:01,VALID,918.624,VALID,0,VALID,99.3632,VALID,0.0849042,VALID,19.2297,VALID,9,VALID,0.325639,
2005-09-09, 03:13:00,VALID,918.616,VALID,0,VALID,99.1534,VALID,0.0509425,VALID,19.2302,VALID,9,VALID,0.359375,
2005-09-09, 03:14:01,VALID,918.604,VALID,0,VALID,98.9792,VALID,0.0509425,VALID,19.2464,VALID,9,VALID,0.234738,
2005-09-09, 03:15:00,VALID,918.596,VALID,0,VALID,98.8291,VALID,0.0339617,VALID,19.269,VALID,9,VALID,0.125558,
2005-09-09, 03:16:01,VALID,918.598,VALID,0,VALID,98.6892,VALID,0.0849042,VALID,19.2881,VALID,9,VALID,0.0801711,
2005-09-09, 03:17:01,VALID,918.606,VALID,0,VALID,98.5989,VALID,0.0849042,VALID,19.3077,VALID,9,VALID,0.302689,
2005-09-09, 03:18:00,VALID,918.614,VALID,0,VALID,98.4591,VALID,0.0849042,VALID,19.3169,VALID,9,VALID,0.512463,
2005-09-09, 03:19:00,VALID,918.608,VALID,0,VALID,98.4069,VALID,0.0679233,VALID,19.3202,VALID,9,VALID,0.669085,
2005-09-09, 03:20:01,VALID,918.611,VALID,0,VALID,98.3243,VALID,0.0169808,VALID,19.3661,VALID,9,VALID,0.602706,
2005-09-09, 03:21:00,VALID,918.603,VALID,0,VALID,98.206,VALID,0.0679233,VALID,19.3917,VALID,9,VALID,0.436547,
2005-09-09, 03:22:00,VALID,918.586,VALID,0,VALID,98.1844,VALID,0.0509425,VALID,19.4369,VALID,9,VALID,0.477653,
2005-09-09, 03:23:00,VALID,918.589,VALID,0,VALID,97.9949,VALID,0.0679233,VALID,19.4722,VALID,9,VALID,0.436228,
2005-09-09, 03:24:00,VALID,918.582,VALID,0,VALID,97.7648,VALID,0.0679233,VALID,19.5079,VALID,9,VALID,0.183866,
2005-09-09, 03:25:00,VALID,918.575,VALID,0,VALID,97.4151,VALID,0.0169808,VALID,19.495,VALID,9,VALID,0,
2005-09-09, 03:26:00,VALID,918.575,VALID,0,VALID,97.2688,VALID,0.0679233,VALID,19.4856,VALID,9,VALID,0,
2005-09-09, 03:27:00,VALID,918.585,VALID,0,VALID,97.2892,VALID,0.0849042,VALID,19.4699,VALID,9,VALID,0,
2005-09-09, 03:28:00,VALID,918.577,VALID,0,VALID,97.2129,VALID,0.0849042,VALID,19.4369,VALID,9,VALID,0,
2005-09-09, 03:29:00,VALID,918.572,VALID,0,VALID,97.2307,VALID,0.0849042,VALID,19.3979,VALID,9,VALID,0,
2005-09-09, 03:30:00,VALID,918.565,VALID,0,VALID,97.2879,VALID,0,VALID,19.3696,VALID,9,VALID,0,
2005-09-09, 03:31:00,VALID,918.564,VALID,0,VALID,97.6554,VALID,0,VALID,19.35,VALID,9,VALID,0.0196221,
2005-09-09, 03:32:00,VALID,918.569,VALID,0,VALID,97.8042,VALID,0,VALID,19.3723,VALID,9,VALID,0.00342988,
2005-09-09, 03:33:01,VALID,918.558,VALID,0,VALID,97.9593,VALID,0,VALID,19.3927,VALID,9,VALID,0.275484,
2005-09-09, 03:34:00,VALID,918.565,VALID,0,VALID,98.0522,VALID,0.0169808,VALID,19.3982,VALID,9,VALID,0.241629,
2005-09-09, 03:35:00,VALID,918.564,VALID,0,VALID,98.1094,VALID,0.0339617,VALID,19.4108,VALID,9,VALID,0.424162,
2005-09-09, 03:36:00,VALID,918.563,VALID,0,VALID,98.103,VALID,0,VALID,19.4145,VALID,5,VALID,0.317454,
2005-09-09, 03:37:01,VALID,918.541,VALID,0,VALID,98.3294,VALID,0.0169808,VALID,19.4503,VALID,4,VALID,0.242932,
2005-09-09, 03:38:00,VALID,918.531,VALID,0,VALID,98.0458,VALID,0.0169808,VALID,19.4471,VALID,4,VALID,0.225852,
2005-09-09, 03:39:01,VALID,918.525,VALID,0,VALID,98.0827,VALID,0,VALID,19.4302,VALID,4,VALID,0.185082,